Home   Weather   Cologne   Past weeks

Flag for Germany Past Weather in Cologne, North Rhine-Westphalia, Germany — Yesterday and Last 2 Weeks

Now
55 °F

Light rain. Partly cloudy.


Feels Like: 55 °F
Forecast: 52 / 65 °F
Wind: 5 mph from South

Location: Koeln / Bonn

Current Time: Sep 30, 2016 at 7:07:03 AM

Latest Report: Sep 30, 2016 at 6:20 AM


Visibility: N/A

Pressure: 29.95 "Hg

Humidity: 88%

Dew Point: 52 °F

Location of CologneLocation

Past Weather in Cologne — Graph

°F

Cologne Temperature Yesterday

Maximum temperature yesterday: 77 °F (at 1:20 PM)
Minimum temperature yesterday: 55 °F (at 7:20 AM)
Average temperature yesterday: 66 °F

High & Low Weather Summary for the Past Weeks

 TemperatureHumidityPressure
High84 °F (Sep 15, 12:50 PM)100% (Sep 17, 2:20 AM)30.33 "Hg (Sep 17, 2:20 AM)
Low43 °F (Sep 22, 2:50 AM)32% (Sep 25, 4:20 PM)29.80 "Hg (Sep 15, 12:50 PM)
Average62 °F73%30.11 "Hg
* Reported Sep 15 5:20 AM — Sep 30 5:50 AM, Cologne, Weather by CustomWeather, © 2016

Note: Actual official high and low records may vary slightly from our data, if they occured in-between our weather recording intervals... More about our weather records

Advertising

Cologne Weather History for the Previous 24 Hours

Scroll right to see more
 ConditionsComfort  
Time TempWeatherWind HumidityBarometerVisibility
5:50 AM
Fri, Sep 30
57 °FLight rain. Passing clouds.6 mph82%29.95 "HgN/A
5:20 AM57 °FLight rain. Passing clouds.7 mph82%29.95 "HgN/A
4:50 AM59 °FLight rain. Passing clouds.7 mph72%29.95 "HgN/A
4:20 AM59 °FPassing clouds.7 mph72%29.95 "HgN/A
3:50 AM59 °FPassing clouds.7 mph77%29.95 "HgN/A
3:20 AM59 °FLight rain. Overcast.8 mph77%29.95 "HgN/A
2:50 AM57 °FLight rain. Passing clouds.12 mph82%29.98 "HgN/A
2:20 AM59 °FLight rain. Passing clouds.9 mph82%29.98 "HgN/A
1:50 AM59 °FLight rain. Passing clouds.8 mph82%29.98 "HgN/A
1:20 AM59 °FPassing clouds.9 mph82%29.98 "HgN/A
12:50 AM59 °FLight rain. Partly cloudy.20 mph88%29.98 "HgN/A
12:20 AM63 °FLight rain. Passing clouds.17 mph83%29.98 "HgN/A
11:50 PM
Thu, Sep 29
64 °FPartly cloudy.8 mph68%29.95 "HgN/A
11:20 PM64 °FPassing clouds.6 mph68%29.98 "HgN/A
10:50 PM64 °FPassing clouds.8 mph68%29.98 "HgN/A
10:20 PM66 °FPassing clouds.8 mph64%29.95 "HgN/A
9:50 PM66 °FPassing clouds.9 mph64%29.98 "HgN/A
9:20 PM66 °FPassing clouds.10 mph64%29.98 "HgN/A
8:50 PM66 °FPassing clouds.7 mph64%29.95 "HgN/A
8:20 PM66 °FPassing clouds.10 mph64%29.95 "HgN/A
7:50 PM68 °FPassing clouds.15 mph60%29.95 "HgN/A
7:20 PM68 °FPassing clouds.14 mph56%29.98 "HgN/A
6:50 PM70 °FScattered clouds.13 mph53%29.95 "HgN/A
6:20 PM72 °FPassing clouds.16 mph50%29.95 "HgN/A
5:50 PM73 °FSunny.17 mph47%29.95 "Hg10 mi
5:20 PM73 °FSunny.20 mph47%29.95 "Hg10 mi
4:50 PM77 °FSunny.18 mph42%29.95 "Hg10 mi
4:20 PM77 °FSunny.17 mph44%29.95 "Hg10 mi
3:50 PM77 °FScattered clouds.22 mph44%29.98 "HgN/A
3:20 PM77 °FScattered clouds.23 mph47%29.98 "HgN/A
2:50 PM77 °FScattered clouds.22 mph47%29.98 "HgN/A
2:20 PM75 °FScattered clouds.18 mph50%30.01 "HgN/A
1:50 PM77 °FScattered clouds.20 mph47%30.01 "HgN/A
1:20 PM77 °FScattered clouds.16 mph47%30.01 "HgN/A
12:50 PM75 °FScattered clouds.15 mph54%30.04 "HgN/A
12:20 PM75 °FScattered clouds.15 mph54%30.04 "HgN/A
11:50 AM73 °FPassing clouds.10 mph57%30.07 "HgN/A
11:20 AM70 °FScattered clouds.9 mph64%30.07 "HgN/A
10:50 AM68 °FPassing clouds.9 mph69%30.09 "HgN/A
10:20 AM66 °FPassing clouds.10 mph73%30.09 "HgN/A
9:50 AM64 °FPassing clouds.12 mph78%30.09 "HgN/A
9:20 AM63 °FPassing clouds.9 mph77%30.12 "HgN/A
8:50 AM61 °FPassing clouds.10 mph83%30.12 "HgN/A
8:20 AM57 °FSunny.12 mph88%30.12 "Hg10 mi
7:50 AM57 °FSunny.12 mph88%30.12 "Hg10 mi
7:20 AM55 °FClear.12 mph94%30.12 "Hg10 mi
Weather by CustomWeather, © 2016

See weather overviewHow to use our weather pages